819  
ASUS44 KLCH 070110  
RWRLCH  
REGIONAL WEATHER ROUNDUP  
NATIONAL WEATHER SERVICE LAKE CHARLES LA  
800 PM CDT THU MAY 06 2021  
 
NOTE: "FAIR" INDICATES FEW OR NO CLOUDS BELOW 12,000 FEET WITH NO  
SIGNIFICANT WEATHER AND/OR S TO VISIBILITY
.  
 
ACROSS SOUTHEAST TEXAS  
 
CITY SKY/WX TMP DP RH WIND PRES REMARKS
 
BEAUMONT CLEAR 76 54 46 N5 30.09R  
BEAUMONT CITY FAIR 76 52 42 N3 30.10S  
ORANGE CLEAR 76 51 42 CALM 30.11S  
JASPER CLEAR 72 59 64 CALM 30.11S  

 
 
ACROSS CENTRAL LOUISIANA  
 
CITY SKY/WX TMP DP RH WIND PRES REMARKS
 
LEESVILLE CLEAR 72 58 61 CALM 30.11R  
FULLERTON FAIR 72 53 51 CALM 30.09R  
ALEXANDRIA INT CLEAR 73 58 59 NE3 30.09R  
ESLER FIELD CLEAR 68 57 68 CALM 30.10S  
DERIDDER FAIR 74 58 57 CALM 30.13R  
OAKDALE CLEAR 68 63 83 CALM 30.10S  
OPELOUSAS FAIR 71 54 54 CALM 30.11R  

 
 
ACROSS SOUTHWEST AND SOUTH CENTRAL LOUISIANA  
 
CITY SKY/WX TMP DP RH WIND PRES REMARKS
 
DEQUINCY FAIR 73 53 49 CALM 30.11R  
SULPHUR CLEAR 76 49 38 N3 30.11R  
LAKE CHARLES CLEAR 76 54 46 E5 30.10R  
CHENNAULT INT CLEAR 77 52 41 NE3 30.10R  
JENNINGS FAIR 73 54 50 NE3 30.10S  
LAFAYETTE CLEAR 73 51 46 N7 30.09S  
NEW IBERIA CLEAR 72 52 49 N7 30.10R  
ABBEVILLE FAIR 72 46 39 N5 30.10R  
PATTERSON CLEAR 75 59 57 N3 30.08S  
SALT POINT N/A 74 59 59 CALM 30.07R  

 
 
SELECTED SITES ACROSS THE REGION  
 
CITY SKY/WX TMP DP RH WIND PRES REMARKS
 
HOUSTON BUSH CLEAR 79 56 45 NE6 30.09F  
HOUSTON HOBBY CLEAR 82 56 40 NE8 30.09R  
GALVESTON CLEAR 75 60 59 E7 30.10S  
COLLEGE STAT CLEAR 80 58 46 E6 30.11S  
CONROE CLEAR 75 62 64 CALM 30.11S  
HUNTSVILLE CLEAR 80 63 55 CALM 30.12R  
LUFKIN CLEAR 75 59 57 CALM 30.12S  
SHREVEPORT CLEAR 77 51 40 N3 30.11S  
MONROE CLEAR 74 56 53 W5 30.10S  
NATCHEZ MS CLEAR 66 57 72 CALM 30.12R  
BATON ROUGE CLEAR 71 55 56 NW3 30.09R  
N.O. INTL ARPT CLEAR 78 56 46 N6 30.07S  
SLIDELL CLEAR 72 58 61 CALM 30.07R  

 
 
MARINE REPORTS  
 
STATION/POSITION TIME SKY/WX TEMP WIND PRES VSBY
 
AIR SEA DIR/SP/G  
(UTC) (F) (DEG/KT/KT) (MB) (MI)  
BUOY 30 S HIGH I 0050 75 75 80/ 4/ 6 1018.4R  
SEA RIM ST PARK NOT AVBL  
PORT ARTHUR 0030 81 76 350/ 5/ 7 1018.8R  
TEXAS POINT 0030 76 77 170/ 5/ 6 1017.2S  
CALCASIEU PASS 0030 79 76 90/ 6/ 7 1017.2R  
LK CHARLES BEACH 0030 81 75 1019.1R  
MARSH ISLAND NOT AVBL  
FRESH WATER LOCK 0024 330/ 7/ 10 N/A  
AMERADA PASS 0030 77 77 340/ 2/ 4 1018.5R  

 
 
 
CLICK HERE TO GO TO PREVIOUS BULLETINS.

The Nexlab LA Page
The Nexlab TX Page Main Text Page